This is the latest recevied weather packets stored in our database for station/object WC4PEM-10. If no packets are shown the sender has not sent any weather packets the latest 1 day(s).
| Time | Temp. | Humidity | Pressure | Rain* | Wind** | Luminosity | Snow |
|---|---|---|---|---|---|---|---|
| 1778002772 | 28.33° C | 56% | 1015.5 hPa | 0 mm | 3.13 m/s, 79° | - | - |
| 1778002673 | 28.33° C | 56% | 1015.5 hPa | 0 mm | 3.13 m/s, 79° | - | - |
| 1778002588 | 28.33° C | 56% | 1015.5 hPa | 0 mm | 3.13 m/s, 79° | - | - |
| 1778002538 | 28.33° C | 59% | 1015.8 hPa | 0 mm | 4.47 m/s, 68° | - | - |
| 1778002383 | 28.33° C | 57% | 1015.6 hPa | 0 mm | 2.24 m/s, 92° | - | - |
| 1778002288 | 28.33° C | 57% | 1015.6 hPa | 0 mm | 2.24 m/s, 92° | - | - |
| 1778002092 | 28.33° C | 56% | 1015.6 hPa | 0 mm | 3.13 m/s, 30° | - | - |
| 1778001988 | 28.33° C | 56% | 1015.6 hPa | 0 mm | 3.13 m/s, 30° | - | - |
| 1778001688 | 28.33° C | 58% | 1015.6 hPa | 0 mm | 4.02 m/s, 25° | - | - |
| 1778001474 | 28.33° C | 56% | 1015.6 hPa | 0 mm | 4.47 m/s, 46° | - | - |
| 1778001388 | 28.33° C | 56% | 1015.6 hPa | 0 mm | 4.47 m/s, 46° | - | - |
| 1778001197 | 28.89° C | 55% | 1015.8 hPa | 0 mm | 4.02 m/s, 87° | - | - |
| 1778001088 | 28.89° C | 55% | 1015.8 hPa | 0 mm | 4.02 m/s, 87° | - | - |
| 1778000788 | 28.89° C | 55% | 1015.7 hPa | 0 mm | 3.58 m/s, 102° | - | - |
| 1778000642 | 28.33° C | 59% | 1015.8 hPa | 0 mm | 4.47 m/s, 68° | - | - |
| 1778000488 | 28.33° C | 59% | 1015.8 hPa | 0 mm | 4.47 m/s, 68° | - | - |
| 1778000294 | 28.33° C | 55% | 1015.8 hPa | 0 mm | 4.47 m/s, 80° | - | - |
| 1778000188 | 28.33° C | 55% | 1015.8 hPa | 0 mm | 4.47 m/s, 80° | - | - |
| 1777999888 | 28.33° C | 58% | 1015.9 hPa | 0 mm | 3.13 m/s, 75° | - | - |
| 1777999766 | 27.78° C | 57% | 1015.9 hPa | 0 mm | 3.13 m/s, 178° | - | - |
| 1777999588 | 27.78° C | 57% | 1015.9 hPa | 0 mm | 3.13 m/s, 178° | - | - |
| 1777999370 | 27.78° C | 60% | 1015.7 hPa | 0 mm | 4.47 m/s, 133° | - | - |
| 1777999288 | 27.78° C | 60% | 1015.7 hPa | 0 mm | 4.47 m/s, 133° | - | - |
| 1777999108 | 27.22° C | 59% | 1015.9 hPa | 0 mm | 4.47 m/s, 105° | - | - |
| 1777998988 | 27.22° C | 59% | 1015.9 hPa | 0 mm | 4.47 m/s, 105° | - | - |
* Rain latest hour (hover to see other rain measurements)
** Current wind speed in m/s (hover to see current wind gust speed)